Flag for Russia Weather past 2 weeks in Surgut, Russia

Now
45 °F

Sprinkles. Broken clouds.


Feels Like: 43 °F
Forecast: 39 / 45 °F
Wind: 3 mph from Southwest

Location: Surgut Airport

Current Time: Sep 16, 2014 at 4:18:53 PM

Latest Report: Sep 16, 2014 at 3:30 PM


Visibility: 3 mi

Pressure: 29.65 "Hg

Humidity: 93%

Dew point: 43 °F

Location of SurgutLocation

Historic Weather in Surgut — Graph

°F

Surgut temperature yesterday

Maximum temperature yesterday: 48 °F (at 3:00 PM)
Minimum temperature yesterday: 37 °F (at 6:00 AM)
Average temperature yesterday: 43 °F

Past Weeks' High & Low Weather Summary

 TemperatureHumidityPressure
High57 °F (Sep 6, 5:30 PM)100% (Sep 3, 6:00 AM)30.15 "Hg (Sep 3, 6:00 AM)
Low32 °F (Sep 4, 3:00 AM)43% (Sep 3, 5:00 PM)29.36 "Hg (Sep 7, 5:00 AM)
Average45 °F83%29.80 "Hg
* Reported Sep 1 3:00 PM — Sep 16 3:00 PM, Surgut, Weather by CustomWeather, © 2014

Note: Actual official high and low records may vary slightly from our data, if they occured in-between our weather recording intervals... More about our weather records

Advertising

Surgut weather history for previous 24 hours

 ConditionsComfort  
Time TempWeatherWind HumidityBarometerVisibility
3:00 PM
Sep 16
45 °FSprinkles. Broken clouds.3 mph93%29.65 "Hg4 mi
2:30 PM45 °FSprinkles. Broken clouds.3 mph93%29.65 "Hg4 mi
2:00 PM45 °FSprinkles. Broken clouds.3 mph87%29.65 "Hg4 mi
1:30 PM45 °FSprinkles. Broken clouds.6 mph87%29.65 "Hg4 mi
1:00 PM45 °FSprinkles. Broken clouds.6 mph87%29.62 "Hg4 mi
12:30 PM45 °FSprinkles. Broken clouds.6 mph87%29.62 "Hg4 mi
12:00 PM43 °FSprinkles. Broken clouds.6 mph93%29.62 "Hg4 mi
11:30 AM43 °FBroken clouds.6 mph93%29.62 "Hg4 mi
11:00 AM43 °FBroken clouds.3 mph93%29.62 "Hg4 mi
10:30 AM43 °FBroken clouds.6 mph93%29.62 "Hg4 mi
10:00 AM43 °FBroken clouds.6 mph93%29.65 "Hg4 mi
9:30 AM43 °FBroken clouds.6 mph93%29.65 "Hg4 mi
9:00 AM41 °FSprinkles. Broken clouds.6 mph100%29.65 "Hg4 mi
8:30 AM41 °FSprinkles. Broken clouds.6 mph100%29.65 "Hg4 mi
8:00 AM41 °FSprinkles. Fog.3 mph100%29.65 "Hg3 mi
7:00 AM41 °FSprinkles. Partly cloudy.6 mph93%29.65 "Hg4 mi
6:30 AM41 °FSprinkles. Partly cloudy.6 mph93%29.65 "Hg4 mi
6:00 AM41 °FSprinkles. Partly cloudy.3 mph100%29.65 "Hg4 mi
5:30 AM41 °FSprinkles. Partly cloudy.3 mph93%29.65 "Hg4 mi
5:00 AM41 °FPartly cloudy.6 mph100%29.65 "Hg4 mi
4:30 AM41 °FSprinkles. Partly cloudy.6 mph100%29.68 "Hg4 mi
4:00 AM41 °FSprinkles. Partly cloudy.6 mph100%29.68 "Hg2 mi
3:30 AM43 °FSprinkles. Passing clouds.6 mph93%29.68 "Hg4 mi
3:00 AM43 °FPassing clouds.3 mph93%29.68 "Hg4 mi
2:30 AM43 °FPassing clouds.3 mph87%29.68 "Hg4 mi
2:00 AM43 °FPassing clouds.6 mph87%29.71 "Hg4 mi
1:30 AM43 °FPassing clouds.3 mph81%29.71 "Hg4 mi
1:00 AM43 °FPassing clouds.6 mph81%29.71 "Hg4 mi
12:30 AM43 °FPassing clouds.3 mph81%29.71 "Hg4 mi
12:00 AM43 °FPassing clouds.6 mph81%29.71 "Hg4 mi
11:30 PM
Sep 15
43 °FPassing clouds.6 mph81%29.71 "Hg4 mi
11:00 PM43 °FPassing clouds.8 mph81%29.74 "Hg4 mi
10:30 PM43 °FPassing clouds.8 mph81%29.74 "Hg4 mi
10:00 PM45 °FPassing clouds.8 mph76%29.74 "Hg4 mi
9:30 PM45 °FPassing clouds.10 mph76%29.74 "Hg4 mi
9:00 PM45 °FPassing clouds.13 mph76%29.74 "Hg4 mi
8:30 PM45 °FPassing clouds.13 mph76%29.74 "Hg4 mi
8:00 PM45 °FBroken clouds.15 mph76%29.74 "Hg4 mi
7:30 PM46 °FBroken clouds.13 mph71%29.74 "Hg4 mi
7:00 PM46 °FBroken clouds.15 mph71%29.74 "Hg4 mi
6:30 PM48 °FBroken clouds.10 mph62%29.74 "Hg4 mi
6:00 PM48 °FBroken clouds.10 mph62%29.74 "Hg4 mi
5:30 PM48 °FBroken clouds.10 mph62%29.74 "Hg4 mi
5:00 PM48 °FBroken clouds.15 mph62%29.74 "Hg4 mi
4:30 PM48 °FBroken clouds.17 mph62%29.74 "Hg4 mi
4:00 PM48 °FBroken clouds.17 mph62%29.74 "Hg4 mi
Weather by CustomWeather, © 2014

See weather overviewHow to use our weather pages